| time (UTC) | temp F | wind direction | speed knots | gust knots | rain 1hr in | rain 24hr in | rain mn in | humidity % | barometer mb |
| 20260906235431 | 83 | 197 | 3.5 | 7.0 | 0.00 | 0.00 | 0.00 | 29 | 1012.6 |
| 20260906234925 | 83 | 210 | 7.8 | 11.3 | 0.00 | 0.00 | 0.00 | 28 | 1013.0 |
| 20260906234425 | 83 | 189 | 9.6 | 11.3 | 0.00 | 0.00 | 0.00 | 28 | 1013.2 |
| 20260906233920 | 83 | 175 | 4.3 | 9.6 | 0.00 | 0.00 | 0.00 | 29 | 1013.2 |
| 20260906233419 | 83 | 185 | 6.1 | 8.7 | 0.00 | 0.00 | 0.00 | 28 | 1013.2 |
| 20260906232918 | 83 | 185 | 5.2 | 7.0 | 0.00 | 0.00 | 0.00 | 28 | 1013.1 |
| 20260906232413 | 83 | 208 | 10.4 | 13.0 | 0.00 | 0.00 | 0.00 | 28 | 1013.2 |
| 20260906231908 | 83 | 186 | 0.0 | 7.8 | 0.00 | 0.00 | 0.00 | 29 | 1013.3 |
| 20260906231403 | 83 | 188 | 0.0 | 1.7 | 0.00 | 0.00 | 0.00 | 29 | 1013.3 |
| 20260906230902 | 83 | 181 | 0.9 | 2.6 | 0.00 | 0.00 | 0.00 | 29 | 1013.5 |
| 20260906230357 | 83 | 208 | 0.9 | 1.7 | 0.00 | 0.00 | 0.00 | 29 | 1013.3 |
| 20260906225855 | 83 | 205 | 0.0 | 0.9 | 0.00 | 0.00 | 0.00 | 30 | 1013.8 |
| 20260906225351 | 83 | 205 | 0.0 | 0.9 | 0.00 | 0.00 | 0.00 | 29 | 1013.5 |
| 20260906224846 | 83 | 247 | 1.7 | 1.7 | 0.00 | 0.00 | 0.00 | 29 | 1013.6 |
| 20260906224343 | 83 | 179 | 0.9 | 3.5 | 0.00 | 0.00 | 0.00 | 28 | 1013.5 |
| 20260906223839 | 84 | 206 | 0.9 | 2.6 | 0.00 | 0.00 | 0.00 | 29 | 1013.5 |
| 20260906223335 | 84 | 201 | 2.6 | 7.8 | 0.00 | 0.00 | 0.00 | 28 | 1013.6 |
| 20260906222833 | 84 | 178 | 0.9 | 2.6 | 0.00 | 0.00 | 0.00 | 28 | 1013.8 |
| 20260906222332 | 84 | 208 | 10.4 | 12.2 | 0.00 | 0.00 | 0.00 | 27 | 1014.0 |
| 20260906221830 | 84 | 219 | 3.5 | 8.7 | 0.00 | 0.00 | 0.00 | 28 | 1013.9 |
| 20260906221330 | 84 | 201 | 0.0 | 1.7 | 0.00 | 0.00 | 0.00 | 29 | 1014.0 |
| 20260906220825 | 84 | 210 | 1.7 | 3.5 | 0.00 | 0.00 | 0.00 | 28 | 1014.3 |
| 20260906220321 | 84 | 204 | 1.7 | 3.5 | 0.00 | 0.00 | 0.00 | 29 | 1014.3 |
| 20260906215819 | 84 | 210 | 0.9 | 5.2 | 0.00 | 0.00 | 0.00 | 29 | 1014.3 |
| 20260906215314 | 85 | 214 | 0.9 | 3.5 | 0.00 | 0.00 | 0.00 | 29 | 1014.2 |
| 20260906214812 | 85 | 197 | 6.1 | 8.7 | 0.00 | 0.00 | 0.00 | 27 | 1014.3 |
| 20260906214307 | 85 | 197 | 1.7 | 6.1 | 0.00 | 0.00 | 0.00 | 28 | 1014.1 |
| 20260906213807 | 85 | 216 | 3.5 | 7.8 | 0.00 | 0.00 | 0.00 | 26 | 1014.2 |
| 20260906213307 | 85 | 214 | 6.1 | 7.8 | 0.00 | 0.00 | 0.00 | 27 | 1014.2 |
| 20260906212804 | 84 | 205 | 6.1 | 7.8 | 0.00 | 0.00 | 0.00 | 27 | 1014.1 |
| 20260906212300 | 84 | 201 | 9.6 | 12.2 | 0.00 | 0.00 | 0.00 | 27 | 1014.4 |
| 20260906211759 | 86 | 220 | 7.8 | 12.2 | 0.00 | 0.00 | 0.00 | 26 | 1014.3 |
| 20260906211254 | 86 | 220 | 7.0 | 9.6 | 0.00 | 0.00 | 0.00 | 26 | 1014.3 |
| 20260906210750 | 86 | 178 | 4.3 | 7.8 | 0.00 | 0.00 | 0.00 | 26 | 1014.3 |
| 20260906210244 | 86 | 211 | 2.6 | 7.0 | 0.00 | 0.00 | 0.00 | 26 | 1014.3 |
| 20260906205744 | 85 | 210 | 5.2 | 7.8 | 0.00 | 0.00 | 0.00 | 26 | 1014.3 |
| 20260906205241 | 85 | 185 | 7.0 | 9.6 | 0.00 | 0.00 | 0.00 | 26 | 1014.5 |
| 20260906204736 | 85 | 201 | 9.6 | 11.3 | 0.00 | 0.00 | 0.00 | 26 | 1014.7 |
| 20260906204235 | 85 | 203 | 7.8 | 13.0 | 0.00 | 0.00 | 0.00 | 26 | 1014.5 |
| 20260906203735 | 84 | 229 | 12.2 | 18.2 | 0.00 | 0.00 | 0.00 | 26 | 1014.5 |
| 20260906203230 | 85 | 200 | 6.1 | 13.0 | 0.00 | 0.00 | 0.00 | 25 | 1014.9 |
| 20260906202727 | 85 | 210 | 7.8 | 18.2 | 0.00 | 0.00 | 0.00 | 26 | 1014.9 |
| 20260906202227 | 85 | 205 | 9.6 | 14.8 | 0.00 | 0.00 | 0.00 | 25 | 1015.0 |
| 20260906201727 | 86 | 203 | 5.2 | 11.3 | 0.00 | 0.00 | 0.00 | 25 | 1014.9 |
| 20260906201226 | 87 | 222 | 4.3 | 12.2 | 0.00 | 0.00 | 0.00 | 25 | 1014.8 |
| 20260906200722 | 86 | 199 | 4.3 | 13.9 | 0.00 | 0.00 | 0.00 | 26 | 1015.1 |
| 20260906200218 | 86 | 208 | 7.8 | 11.3 | 0.00 | 0.00 | 0.00 | 25 | 1015.1 |
| 20260906195713 | 86 | 217 | 5.2 | 12.2 | 0.00 | 0.00 | 0.00 | 26 | 1015.2 |
| 20260906195209 | 87 | 203 | 7.8 | 11.3 | 0.00 | 0.00 | 0.00 | 24 | 1015.1 |
| 20260906194705 | 86 | 199 | 8.7 | 12.2 | 0.00 | 0.00 | 0.00 | 24 | 1015.2 |
| 20260906194200 | 86 | 194 | 0.9 | 5.2 | 0.00 | 0.00 | 0.00 | 26 | 1015.2 |
| 20260906193655 | 85 | 222 | 2.6 | 6.1 | 0.00 | 0.00 | 0.00 | 26 | 1015.3 |
| 20260906193150 | 86 | 226 | 6.1 | 8.7 | 0.00 | 0.00 | 0.00 | 24 | 1015.3 |
| 20260906192646 | 84 | 219 | 1.7 | 5.2 | 0.00 | 0.00 | 0.00 | 27 | 1015.7 |
| 20260906192145 | 84 | 203 | 10.4 | 12.2 | 0.00 | 0.00 | 0.00 | 25 | 1015.7 |
| 20260906191640 | 84 | 224 | 3.5 | 7.0 | 0.00 | 0.00 | 0.00 | 25 | 1015.3 |
| 20260906191140 | 84 | 206 | 2.6 | 12.2 | 0.00 | 0.00 | 0.00 | 26 | 1015.6 |
| 20260906190634 | 84 | 209 | 3.5 | 7.8 | 0.00 | 0.00 | 0.00 | 26 | 1015.9 |
| 20260906190129 | 83 | 197 | 7.8 | 9.6 | 0.00 | 0.00 | 0.00 | 25 | 1015.9 |
| 20260906185628 | 84 | 206 | 5.2 | 8.7 | 0.00 | 0.00 | 0.00 | 26 | 1016.1 |
| 20260906185127 | 85 | 203 | 4.3 | 8.7 | 0.00 | 0.00 | 0.00 | 25 | 1016.0 |
| 20260906184622 | 83 | 194 | 4.3 | 7.0 | 0.00 | 0.00 | 0.00 | 26 | 1016.0 |
| 20260906184118 | 84 | 189 | 5.2 | 7.8 | 0.00 | 0.00 | 0.00 | 25 | 1016.0 |
| 20260906183613 | 84 | 210 | 1.7 | 2.6 | 0.00 | 0.00 | 0.00 | 23 | 1016.3 |
| 20260906183109 | 84 | 186 | 5.2 | 8.7 | 0.00 | 0.00 | 0.00 | 25 | 1016.3 |
| 20260906182603 | 85 | 219 | 6.1 | 11.3 | 0.00 | 0.00 | 0.00 | 25 | 1016.3 |
| 20260906182100 | 84 | 254 | 2.6 | 7.0 | 0.00 | 0.00 | 0.00 | 26 | 1016.4 |
| 20260906181555 | 84 | 194 | 7.8 | 12.2 | 0.00 | 0.00 | 0.00 | 25 | 1016.1 |
| 20260906181051 | 84 | 209 | 4.3 | 5.2 | 0.00 | 0.00 | 0.00 | 25 | 1016.5 |
| 20260906180551 | 84 | 218 | 5.2 | 9.6 | 0.00 | 0.00 | 0.00 | 24 | 1016.7 |
| 20260906180050 | 84 | 199 | 6.1 | 7.0 | 0.00 | 0.00 | 0.00 | 25 | 1016.7 |
| 20260906175549 | 84 | 208 | 5.2 | 7.0 | 0.00 | 0.00 | 0.00 | 26 | 1016.5 |
| 20260906175044 | 84 | 210 | 7.8 | 9.6 | 0.00 | 0.00 | 0.00 | 24 | 1016.9 |
| 20260906174542 | 84 | 206 | 7.0 | 11.3 | 0.00 | 0.00 | 0.00 | 24 | 1016.8 |
| 20260906174037 | 84 | 212 | 6.1 | 12.2 | 0.00 | 0.00 | 0.00 | 25 | 1016.9 |
| 20260906173532 | 84 | 215 | 5.2 | 7.8 | 0.00 | 0.00 | 0.00 | 24 | 1016.9 |
| 20260906173029 | 84 | 199 | 2.6 | 6.1 | 0.00 | 0.00 | 0.00 | 24 | 1017.3 |
| 20260906172528 | 84 | 231 | 1.7 | 5.2 | 0.00 | 0.00 | 0.00 | 25 | 1017.2 |
| 20260906172024 | 83 | 210 | 7.0 | 8.7 | 0.00 | 0.00 | 0.00 | 25 | 1017.3 |
| 20260906171519 | 82 | 215 | 7.8 | 11.3 | 0.00 | 0.00 | 0.00 | 25 | 1017.3 |
| 20260906171014 | 83 | 209 | 6.1 | 9.6 | 0.00 | 0.00 | 0.00 | 26 | 1017.2 |
| 20260906170510 | 83 | 206 | 7.0 | 9.6 | 0.00 | 0.00 | 0.00 | 27 | 1017.4 |
| 20260906170009 | 83 | 228 | 6.1 | 8.7 | 0.00 | 0.00 | 0.00 | 26 | 1017.3 |
| 20260906165506 | 83 | 209 | 6.1 | 8.7 | 0.00 | 0.00 | 0.00 | 27 | 1017.5 |
| 20260906165000 | 83 | 213 | 6.1 | 8.7 | 0.00 | 0.00 | 0.00 | 27 | 1017.4 |
| 20260906164459 | 83 | 207 | 1.7 | 2.6 | 0.00 | 0.00 | 0.00 | 28 | 1017.5 |
| 20260906163956 | 83 | 224 | 1.7 | 5.2 | 0.00 | 0.00 | 0.00 | 29 | 1017.5 |
| 20260906163451 | 83 | 206 | 1.7 | 1.7 | 0.00 | 0.00 | 0.00 | 29 | 1017.6 |
| 20260906162950 | 83 | 211 | 0.9 | 2.6 | 0.00 | 0.00 | 0.00 | 28 | 1017.6 |
| 20260906162448 | 83 | 256 | 0.9 | 0.9 | 0.00 | 0.00 | 0.00 | 28 | 1017.7 |
| 20260906161943 | 82 | 191 | 0.0 | 0.9 | 0.00 | 0.00 | 0.00 | 28 | 1017.5 |
| 20260906161443 | 80 | 170 | 0.0 | 0.9 | 0.00 | 0.00 | 0.00 | 29 | 1017.6 |
| 20260906160942 | 79 | 20 | 2.6 | 3.5 | 0.00 | 0.00 | 0.00 | 31 | 1017.5 |
| 20260906160436 | 78 | 163 | 0.9 | 0.9 | 0.00 | 0.00 | 0.00 | 31 | 1017.8 |
| 20260906155934 | 79 | 80 | 0.9 | 1.7 | 0.00 | 0.00 | 0.00 | 30 | 1017.7 |
| 20260906155428 | 79 | 123 | 0.9 | 0.9 | 0.00 | 0.00 | 0.00 | 30 | 1017.7 |
| 20260906154925 | 78 | 191 | 0.0 | 0.9 | 0.00 | 0.00 | 0.00 | 33 | 1017.8 |
| 20260906154424 | 79 | 91 | 1.7 | 1.7 | 0.00 | 0.00 | 0.00 | 29 | 1018.0 |
| 20260906153923 | 78 | 129 | 0.9 | 0.9 | 0.00 | 0.00 | 0.00 | 30 | 1018.0 |
| 20260906153422 | 76 | 172 | 0.9 | 0.9 | 0.00 | 0.00 | 0.00 | 32 | 1018.1 |
| 20260906152917 | 77 | 171 | 0.0 | 1.7 | 0.00 | 0.00 | 0.00 | 31 | 1018.1 |
| 20260906152412 | 75 | 193 | 0.0 | 1.7 | 0.00 | 0.00 | 0.00 | 32 | 1018.1 |
| 20260906151911 | 74 | 240 | 0.9 | 1.7 | 0.00 | 0.00 | 0.00 | 34 | 1018.0 |
| 20260906151407 | 74 | 253 | 1.7 | 5.2 | 0.00 | 0.00 | 0.00 | 34 | 1018.1 |
| 20260906150903 | 74 | 224 | 1.7 | 1.7 | 0.00 | 0.00 | 0.00 | 34 | 1017.8 |
| 20260906150358 | 74 | 226 | 1.7 | 3.5 | 0.00 | 0.00 | 0.00 | 34 | 1018.0 |
| 20260906145857 | 74 | 204 | 0.9 | 2.6 | 0.00 | 0.00 | 0.00 | 33 | 1017.7 |
| 20260906145357 | 75 | 294 | 1.7 | 2.6 | 0.00 | 0.00 | 0.00 | 33 | 1018.1 |
| 20260906144857 | 74 | 218 | 0.9 | 1.7 | 0.00 | 0.00 | 0.00 | 35 | 1017.8 |
| 20260906144352 | 74 | 117 | 1.7 | 1.7 | 0.00 | 0.00 | 0.00 | 34 | 1017.7 |
| 20260906143846 | 74 | 164 | 0.9 | 2.6 | 0.00 | 0.00 | 0.00 | 33 | 1017.5 |
| 20260906143342 | 74 | 255 | 1.7 | 1.7 | 0.00 | 0.00 | 0.00 | 34 | 1017.6 |
| 20260906142838 | 72 | 186 | 0.0 | 0.9 | 0.00 | 0.00 | 0.00 | 34 | 1017.4 |
| 20260906142332 | 72 | 203 | 0.9 | 1.7 | 0.00 | 0.00 | 0.00 | 36 | 1017.4 |
| 20260906141826 | 71 | 179 | 0.0 | 0.0 | 0.00 | 0.00 | 0.00 | 35 | 1017.4 |
| 20260906141321 | 70 | 177 | 0.0 | 1.7 | 0.00 | 0.00 | 0.00 | 37 | 1017.6 |
| 20260906140819 | 69 | 169 | 0.0 | 0.0 | 0.00 | 0.00 | 0.00 | 37 | 1017.4 |
| 20260906140315 | 68 | 201 | 0.0 | 1.7 | 0.00 | 0.00 | 0.00 | 38 | 1017.2 |
| 20260906135812 | 67 | 194 | 0.0 | 1.7 | 0.00 | 0.00 | 0.00 | 38 | 1017.5 |
| 20260906135307 | 66 | 206 | 0.0 | 0.9 | 0.00 | 0.00 | 0.00 | 38 | 1017.3 |
| 20260906134803 | 66 | 221 | 0.0 | 0.9 | 0.00 | 0.00 | 0.00 | 40 | 1017.3 |
| 20260906134258 | 66 | 220 | 0.0 | 0.9 | 0.00 | 0.00 | 0.00 | 39 | 1017.0 |
| 20260906133753 | 67 | 315 | 1.7 | 2.6 | 0.00 | 0.00 | 0.00 | 38 | 1017.2 |
| 20260906133249 | 68 | 170 | 0.0 | 0.0 | 0.00 | 0.00 | 0.00 | 38 | 1017.0 |
| 20260906132744 | 68 | 170 | 0.0 | 0.9 | 0.00 | 0.00 | 0.00 | 38 | 1016.8 |
| 20260906132239 | 68 | 202 | 0.0 | 1.7 | 0.00 | 0.00 | 0.00 | 38 | 1016.8 |
| 20260906131736 | 68 | 190 | 0.0 | 0.0 | 0.00 | 0.00 | 0.00 | 36 | 1016.8 |
| 20260906131231 | 68 | 187 | 0.0 | 0.9 | 0.00 | 0.00 | 0.00 | 35 | 1016.7 |
| 20260906130726 | 68 | 192 | 0.0 | 0.0 | 0.00 | 0.00 | 0.00 | 35 | 1016.7 |
| 20260906130220 | 68 | 182 | 0.0 | 0.0 | 0.00 | 0.00 | 0.00 | 35 | 1016.8 |
| 20260906125719 | 68 | 190 | 0.0 | 0.0 | 0.00 | 0.00 | 0.00 | 35 | 1016.6 |
| 20260906125218 | 68 | 196 | 0.9 | 1.7 | 0.00 | 0.00 | 0.00 | 34 | 1016.5 |
| 20260906124713 | 66 | 147 | 0.0 | 1.7 | 0.00 | 0.00 | 0.00 | 36 | 1016.7 |
| 20260906124209 | 65 | 154 | 0.0 | 0.9 | 0.00 | 0.00 | 0.00 | 36 | 1016.7 |
| 20260906123707 | 65 | 159 | 0.0 | 0.9 | 0.00 | 0.00 | 0.00 | 40 | 1016.8 |
| 20260906123203 | 66 | 151 | 0.9 | 0.9 | 0.00 | 0.00 | 0.00 | 38 | 1016.7 |
| 20260906122702 | 66 | 176 | 0.0 | 0.9 | 0.00 | 0.00 | 0.00 | 38 | 1016.7 |
| 20260906122157 | 66 | 168 | 0.0 | 0.9 | 0.00 | 0.00 | 0.00 | 35 | 1016.7 |
| 20260906121654 | 66 | 182 | 0.0 | 0.0 | 0.00 | 0.00 | 0.00 | 35 | 1016.6 |
| 20260906121150 | 66 | 168 | 0.9 | 1.7 | 0.00 | 0.00 | 0.00 | 38 | 1016.8 |
| 20260906120645 | 66 | 138 | 0.0 | 0.9 | 0.00 | 0.00 | 0.00 | 36 | 1016.6 |
| 20260906120142 | 66 | 156 | 0.0 | 0.9 | 0.00 | 0.00 | 0.00 | 36 | 1016.5 |
| 20260906115642 | 66 | 163 | 0.0 | 0.9 | 0.00 | 0.00 | 0.00 | 35 | 1016.5 |
| 20260906115138 | 66 | 176 | 0.0 | 0.0 | 0.00 | 0.00 | 0.00 | 35 | 1016.7 |
| 20260906114636 | 66 | 174 | 0.0 | 0.9 | 0.00 | 0.00 | 0.00 | 36 | 1016.4 |
| 20260906114131 | 65 | 172 | 0.0 | 0.9 | 0.00 | 0.00 | 0.00 | 37 | 1016.7 |
| 20260906113631 | 66 | 169 | 0.0 | 0.9 | 0.00 | 0.00 | 0.00 | 35 | 1016.6 |
| 20260906113126 | 66 | 127 | 0.0 | 0.0 | 0.00 | 0.00 | 0.00 | 35 | 1016.7 |
| 20260906112625 | 66 | 174 | 0.0 | 0.0 | 0.00 | 0.00 | 0.00 | 39 | 1016.6 |
| 20260906112123 | 66 | 165 | 0.0 | 0.0 | 0.00 | 0.00 | 0.00 | 38 | 1016.7 |
| 20260906111621 | 66 | 166 | 0.0 | 0.9 | 0.00 | 0.00 | 0.00 | 36 | 1016.6 |
| 20260906111117 | 67 | 175 | 0.0 | 0.0 | 0.00 | 0.00 | 0.00 | 36 | 1016.6 |
| 20260906110612 | 67 | 186 | 0.0 | 0.0 | 0.00 | 0.00 | 0.00 | 34 | 1016.6 |
| 20260906110112 | 68 | 191 | 0.0 | 0.0 | 0.00 | 0.00 | 0.00 | 33 | 1016.6 |
| 20260906105606 | 69 | 132 | 0.9 | 0.9 | 0.00 | 0.00 | 0.00 | 33 | 1016.5 |
| 20260906105102 | 70 | 172 | 0.0 | 0.9 | 0.00 | 0.00 | 0.00 | 31 | 1016.6 |
| 20260906104601 | 71 | 172 | 0.0 | 0.9 | 0.00 | 0.00 | 0.00 | 30 | 1016.6 |
| 20260906104055 | 71 | 194 | 0.0 | 0.0 | 0.00 | 0.00 | 0.00 | 28 | 1016.5 |
| 20260906103554 | 69 | 217 | 1.7 | 2.6 | 0.00 | 0.00 | 0.00 | 28 | 1016.6 |
| 20260906103049 | 69 | 166 | 0.9 | 0.9 | 0.00 | 0.00 | 0.00 | 31 | 1016.5 |
| 20260906102549 | 69 | 196 | 0.0 | 3.5 | 0.00 | 0.00 | 0.00 | 34 | 1016.6 |
| 20260906102044 | 69 | 174 | 0.0 | 0.0 | 0.00 | 0.00 | 0.00 | 32 | 1016.6 |
| 20260906101538 | 69 | 185 | 0.0 | 1.7 | 0.00 | 0.00 | 0.00 | 32 | 1016.4 |
| 20260906101033 | 68 | 156 | 0.0 | 0.9 | 0.00 | 0.00 | 0.00 | 33 | 1016.4 |
| 20260906100530 | 68 | 184 | 0.0 | 0.9 | 0.00 | 0.00 | 0.00 | 31 | 1016.5 |
| 20260906100029 | 68 | 182 | 0.0 | 0.9 | 0.00 | 0.00 | 0.00 | 33 | 1016.3 |
| 20260906095524 | 68 | 169 | 0.0 | 0.9 | 0.00 | 0.00 | 0.00 | 32 | 1016.6 |
| 20260906095019 | 68 | 158 | 0.0 | 0.9 | 0.00 | 0.00 | 0.00 | 34 | 1016.3 |
| 20260906094518 | 68 | 180 | 0.0 | 0.0 | 0.00 | 0.00 | 0.00 | 33 | 1016.3 |
| 20260906094014 | 67 | 166 | 0.0 | 0.9 | 0.00 | 0.00 | 0.00 | 34 | 1016.3 |
| 20260906093511 | 66 | 201 | 0.9 | 2.6 | 0.00 | 0.00 | 0.00 | 35 | 1016.1 |
| 20260906093010 | 66 | 162 | 0.0 | 0.0 | 0.00 | 0.00 | 0.00 | 36 | 1016.4 |
| 20260906092505 | 66 | 175 | 0.0 | 0.0 | 0.00 | 0.00 | 0.00 | 36 | 1016.3 |
| 20260906092000 | 67 | 175 | 0.0 | 0.0 | 0.00 | 0.00 | 0.00 | 36 | 1016.1 |
| 20260906091456 | 68 | 172 | 0.0 | 0.0 | 0.00 | 0.00 | 0.00 | 36 | 1016.1 |
| 20260906090953 | 69 | 173 | 0.0 | 0.9 | 0.00 | 0.00 | 0.00 | 34 | 1016.1 |
| 20260906090448 | 69 | 134 | 0.9 | 0.9 | 0.00 | 0.00 | 0.00 | 31 | 1016.1 |
| 20260906085947 | 69 | 226 | 0.0 | 0.9 | 0.00 | 0.00 | 0.00 | 32 | 1016.3 |
| 20260906085446 | 70 | 227 | 0.9 | 0.9 | 0.00 | 0.00 | 0.00 | 31 | 1016.0 |
| 20260906084946 | 71 | 204 | 0.0 | 0.9 | 0.00 | 0.00 | 0.00 | 29 | 1015.9 |
| 20260906084441 | 72 | 199 | 0.0 | 0.0 | 0.00 | 0.00 | 0.00 | 28 | 1015.9 |
| 20260906083939 | 72 | 212 | 0.9 | 0.9 | 0.00 | 0.00 | 0.00 | 27 | 1015.8 |
| 20260906083436 | 71 | 183 | 0.9 | 1.7 | 0.00 | 0.00 | 0.00 | 28 | 1016.0 |
| 20260906082934 | 72 | 213 | 0.0 | 0.0 | 0.00 | 0.00 | 0.00 | 28 | 1015.9 |
| 20260906082430 | 73 | 177 | 0.9 | 0.9 | 0.00 | 0.00 | 0.00 | 27 | 1016.0 |
| 20260906081926 | 73 | 201 | 0.0 | 0.9 | 0.00 | 0.00 | 0.00 | 25 | 1016.0 |
| 20260906081421 | 74 | 206 | 0.0 | 1.7 | 0.00 | 0.00 | 0.00 | 25 | 1015.9 |
| 20260906080917 | 75 | 180 | 0.9 | 0.9 | 0.00 | 0.00 | 0.00 | 25 | 1016.0 |
| 20260906080414 | 75 | 174 | 0.0 | 2.6 | 0.00 | 0.00 | 0.00 | 26 | 1016.0 |
| 20260906075913 | 75 | 195 | 0.9 | 1.7 | 0.00 | 0.00 | 0.00 | 23 | 1016.0 |
| 20260906075408 | 75 | 190 | 0.0 | 0.0 | 0.00 | 0.00 | 0.00 | 24 | 1016.0 |
| 20260906074903 | 75 | 189 | 0.0 | 2.6 | 0.00 | 0.00 | 0.00 | 24 | 1015.9 |
| 20260906074402 | 77 | 185 | 0.0 | 0.9 | 0.00 | 0.00 | 0.00 | 24 | 1016.0 |
| 20260906073901 | 77 | 213 | 1.7 | 5.2 | 0.00 | 0.00 | 0.00 | 22 | 1016.1 |
| 20260906073356 | 77 | 199 | 1.7 | 2.6 | 0.00 | 0.00 | 0.00 | 22 | 1016.0 |
| 20260906072853 | 77 | 195 | 1.7 | 3.5 | 0.00 | 0.00 | 0.00 | 22 | 1016.1 |
| 20260906072348 | 76 | 186 | 3.5 | 7.0 | 0.00 | 0.00 | 0.00 | 22 | 1016.3 |
| 20260906071844 | 75 | 192 | 0.9 | 2.6 | 0.00 | 0.00 | 0.00 | 23 | 1016.0 |
| 20260906071339 | 75 | 181 | 1.7 | 2.6 | 0.00 | 0.00 | 0.00 | 22 | 1016.1 |
| 20260906070836 | 75 | 187 | 0.0 | 0.9 | 0.00 | 0.00 | 0.00 | 24 | 1016.4 |
| 20260906070331 | 75 | 196 | 0.9 | 3.5 | 0.00 | 0.00 | 0.00 | 22 | 1016.0 |
| 20260906065827 | 75 | 201 | 0.0 | 0.9 | 0.00 | 0.00 | 0.00 | 22 | 1016.0 |
| 20260906065321 | 75 | 191 | 0.0 | 1.7 | 0.00 | 0.00 | 0.00 | 22 | 1016.0 |
| 20260906064817 | 77 | 179 | 0.0 | 0.9 | 0.00 | 0.00 | 0.00 | 21 | 1016.1 |
| 20260906064313 | 77 | 193 | 0.9 | 1.7 | 0.00 | 0.00 | 0.00 | 21 | 1016.0 |
| 20260906063812 | 77 | 183 | 1.7 | 2.6 | 0.00 | 0.00 | 0.00 | 21 | 1015.9 |
| 20260906063308 | 77 | 195 | 1.7 | 3.5 | 0.00 | 0.00 | 0.00 | 21 | 1016.0 |
| 20260906062803 | 77 | 178 | 1.7 | 3.5 | 0.00 | 0.00 | 0.00 | 21 | 1015.9 |
| 20260906062305 | 76 | 190 | 2.6 | 5.2 | 0.00 | 0.00 | 0.00 | 21 | 1015.7 |
| 20260906061758 | 75 | 181 | 3.5 | 5.2 | 0.00 | 0.00 | 0.00 | 22 | 1015.6 |
| 20260906061254 | 75 | 175 | 1.7 | 1.7 | 0.00 | 0.00 | 0.00 | 23 | 1015.8 |
| 20260906060749 | 73 | 124 | 0.9 | 2.6 | 0.00 | 0.00 | 0.00 | 23 | 1015.7 |
| 20260906060247 | 73 | 150 | 0.9 | 1.7 | 0.00 | 0.00 | 0.00 | 25 | 1015.6 |
| 20260906055742 | 73 | 168 | 0.0 | 0.9 | 0.00 | 0.00 | 0.00 | 26 | 1015.6 |
| 20260906055237 | 72 | 123 | 0.9 | 0.9 | 0.00 | 0.00 | 0.00 | 27 | 1015.6 |
| 20260906054732 | 73 | 174 | 0.0 | 0.9 | 0.00 | 0.00 | 0.00 | 27 | 1015.7 |
| 20260906054227 | 73 | 132 | 0.0 | 0.9 | 0.00 | 0.00 | 0.00 | 26 | 1015.7 |
| 20260906053724 | 73 | 136 | 1.7 | 1.7 | 0.00 | 0.00 | 0.00 | 25 | 1015.3 |
| 20260906053219 | 73 | 142 | 0.9 | 1.7 | 0.00 | 0.00 | 0.00 | 26 | 1015.5 |
| 20260906052714 | 74 | 183 | 0.0 | 0.0 | 0.00 | 0.00 | 0.00 | 25 | 1015.9 |
| 20260906052210 | 73 | 149 | 0.9 | 0.9 | 0.00 | 0.00 | 0.00 | 25 | 1015.6 |
| 20260906051707 | 73 | 169 | 0.9 | 1.7 | 0.00 | 0.00 | 0.00 | 27 | 1015.7 |
| 20260906051207 | 73 | 158 | 0.0 | 0.9 | 0.00 | 0.00 | 0.00 | 28 | 1015.5 |
| 20260906050702 | 73 | 178 | 0.0 | 0.9 | 0.00 | 0.00 | 0.00 | 27 | 1015.6 |
| 20260906050157 | 74 | 113 | 0.9 | 0.9 | 0.00 | 0.00 | 0.00 | 26 | 1015.7 |
| 20260906045655 | 73 | 172 | 0.0 | 0.9 | 0.00 | 0.00 | 0.00 | 28 | 1015.6 |
| 20260906045151 | 73 | 94 | 1.7 | 1.7 | 0.00 | 0.00 | 0.00 | 26 | 1015.7 |
| 20260906044647 | 73 | 149 | 0.0 | 0.9 | 0.00 | 0.00 | 0.00 | 26 | 1015.6 |
| 20260906044142 | 74 | 171 | 0.0 | 0.0 | 0.00 | 0.00 | 0.00 | 26 | 1015.5 |
| 20260906043638 | 73 | 151 | 0.0 | 0.9 | 0.00 | 0.00 | 0.00 | 25 | 1015.6 |
| 20260906043133 | 74 | 183 | 0.0 | 0.0 | 0.00 | 0.00 | 0.00 | 26 | 1015.7 |
| 20260906042632 | 74 | 107 | 0.9 | 0.9 | 0.00 | 0.00 | 0.00 | 27 | 1015.3 |
| 20260906042127 | 75 | 138 | 0.9 | 0.9 | 0.00 | 0.00 | 0.00 | 26 | 1015.5 |
| 20260906041624 | 75 | 121 | 0.9 | 2.6 | 0.00 | 0.00 | 0.00 | 26 | 1015.3 |
| 20260906041123 | 75 | 188 | 0.0 | 0.9 | 0.00 | 0.00 | 0.00 | 25 | 1015.2 |
| 20260906040619 | 76 | 181 | 0.0 | 0.0 | 0.00 | 0.00 | 0.00 | 25 | 1015.5 |
| 20260906040114 | 76 | 145 | 0.9 | 2.6 | 0.00 | 0.00 | 0.00 | 25 | 1015.5 |
| 20260906035610 | 75 | 181 | 0.0 | 0.0 | 0.00 | 0.00 | 0.00 | 25 | 1015.2 |
| 20260906035106 | 75 | 160 | 0.9 | 0.9 | 0.00 | 0.00 | 0.00 | 26 | 1015.2 |
| 20260906034605 | 76 | 155 | 0.0 | 0.0 | 0.00 | 0.00 | 0.00 | 25 | 1015.3 |
| 20260906034100 | 76 | 109 | 0.9 | 1.7 | 0.00 | 0.00 | 0.00 | 25 | 1015.0 |
| 20260906033556 | 76 | 148 | 0.9 | 1.7 | 0.00 | 0.00 | 0.00 | 25 | 1015.1 |
| 20260906033051 | 76 | 162 | 0.0 | 1.7 | 0.00 | 0.00 | 0.00 | 25 | 1015.0 |
| 20260906032547 | 76 | 161 | 0.9 | 1.7 | 0.00 | 0.00 | 0.00 | 24 | 1015.1 |
| 20260906032041 | 75 | 58 | 1.7 | 2.6 | 0.00 | 0.00 | 0.00 | 25 | 1015.0 |
| 20260906031537 | 75 | 70 | 2.6 | 2.6 | 0.00 | 0.00 | 0.00 | 25 | 1014.8 |
| 20260906031033 | 75 | 113 | 0.0 | 1.7 | 0.00 | 0.00 | 0.00 | 25 | 1015.0 |
| 20260906030532 | 75 | 190 | 0.9 | 0.9 | 0.00 | 0.00 | 0.00 | 25 | 1014.9 |
| 20260906030032 | 76 | 62 | 1.7 | 2.6 | 0.00 | 0.00 | 0.00 | 25 | 1014.8 |
| 20260906025532 | 76 | 162 | 1.7 | 2.6 | 0.00 | 0.00 | 0.00 | 25 | 1014.7 |
| 20260906025030 | 76 | 176 | 0.9 | 3.5 | 0.00 | 0.00 | 0.00 | 25 | 1014.7 |
| 20260906024526 | 76 | 203 | 1.7 | 2.6 | 0.00 | 0.00 | 0.00 | 25 | 1014.5 |
| 20260906024025 | 77 | 149 | 0.0 | 1.7 | 0.00 | 0.00 | 0.00 | 25 | 1014.3 |
| 20260906023522 | 77 | 131 | 0.9 | 2.6 | 0.00 | 0.00 | 0.00 | 24 | 1014.7 |
| 20260906023016 | 76 | 172 | 0.0 | 0.9 | 0.00 | 0.00 | 0.00 | 25 | 1014.4 |
| 20260906022512 | 77 | 175 | 0.9 | 1.7 | 0.00 | 0.00 | 0.00 | 27 | 1014.5 |
| 20260906022007 | 77 | 176 | 0.9 | 1.7 | 0.00 | 0.00 | 0.00 | 26 | 1014.3 |
| 20260906021502 | 76 | 121 | 0.9 | 1.7 | 0.00 | 0.00 | 0.00 | 27 | 1014.3 |
| 20260906020956 | 77 | 211 | 0.9 | 0.9 | 0.00 | 0.00 | 0.00 | 29 | 1014.4 |
| 20260906020450 | 77 | 182 | 0.0 | 0.0 | 0.00 | 0.00 | 0.00 | 27 | 1014.2 |
| 20260906015950 | 78 | 151 | 0.0 | 0.9 | 0.00 | 0.00 | 0.00 | 26 | 1014.3 |
| 20260906015449 | 80 | 171 | 0.0 | 0.9 | 0.00 | 0.00 | 0.00 | 26 | 1014.4 |
| 20260906014949 | 81 | 184 | 0.0 | 0.0 | 0.00 | 0.00 | 0.00 | 24 | 1014.4 |
| 20260906014449 | 83 | 186 | 0.0 | 0.0 | 0.00 | 0.00 | 0.00 | 24 | 1014.2 |
| 20260906013946 | 84 | 186 | 0.0 | 0.0 | 0.00 | 0.00 | 0.00 | 22 | 1014.4 |
| 20260906013441 | 84 | 177 | 0.0 | 0.0 | 0.00 | 0.00 | 0.00 | 19 | 1014.4 |
| 20260906012937 | 84 | 189 | 0.0 | 0.0 | 0.00 | 0.00 | 0.00 | 19 | 1014.5 |
| 20260906012437 | 84 | 184 | 0.0 | 0.9 | 0.00 | 0.00 | 0.00 | 19 | 1014.7 |
| 20260906011936 | 84 | 191 | 0.0 | 0.0 | 0.00 | 0.00 | 0.00 | 20 | 1014.5 |
| 20260906011432 | 84 | 210 | 0.0 | 2.6 | 0.00 | 0.00 | 0.00 | 19 | 1014.5 |
| 20260906010927 | 84 | 220 | 0.9 | 0.9 | 0.00 | 0.00 | 0.00 | 18 | 1014.5 |
| 20260906010422 | 85 | 208 | 0.0 | 0.9 | 0.00 | 0.00 | 0.00 | 19 | 1014.7 |
| 20260906005918 | 85 | 200 | 0.9 | 2.6 | 0.00 | 0.00 | 0.00 | 19 | 1014.7 |
| 20260906005417 | 86 | 201 | 1.7 | 2.6 | 0.00 | 0.00 | 0.00 | 18 | 1014.5 |
| 20260906004916 | 87 | 203 | 0.0 | 1.7 | 0.00 | 0.00 | 0.00 | 17 | 1014.7 |
| 20260906004410 | 88 | 200 | 0.0 | 0.9 | 0.00 | 0.00 | 0.00 | 18 | 1014.8 |
| 20260906003906 | 88 | 232 | 0.9 | 1.7 | 0.00 | 0.00 | 0.00 | 18 | 1014.7 |
| 20260906003401 | 88 | 242 | 1.7 | 2.6 | 0.00 | 0.00 | 0.00 | 16 | 1014.8 |
| 20260906002857 | 88 | 203 | 0.0 | 1.7 | 0.00 | 0.00 | 0.00 | 18 | 1014.7 |
| 20260906002356 | 88 | 279 | 0.9 | 2.6 | 0.00 | 0.00 | 0.00 | 17 | 1014.8 |
| 20260906001852 | 89 | 209 | 1.7 | 1.7 | 0.00 | 0.00 | 0.00 | 18 | 1014.9 |
| 20260906001347 | 89 | 226 | 0.9 | 1.7 | 0.00 | 0.00 | 0.00 | 17 | 1014.8 |
| 20260906000842 | 89 | 205 | 0.9 | 1.7 | 0.00 | 0.00 | 0.00 | 17 | 1014.9 |
| 20260906000342 | 89 | 243 | 0.9 | 2.6 | 0.00 | 0.00 | 0.00 | 18 | 1014.9 |
| 20260905235842 | 88 | 290 | 1.7 | 2.6 | 0.00 | 0.00 | 0.00 | 17 | 1014.9 |